Time,TemperatureF,DewpointF,PressureIn,WindDirection,WindDirectionDegrees,WindSpeedMPH,WindSpeedGustMPH,Humidity,HourlyPrecipIn,Conditions,Clouds,dailyrainin,SoftwareType,DateUTC
2013-05-30 00:00:00,70.6,65.2,29.87,SSW,200,0.0,3.0,83,0.00,,OVC030,0.00,VWS V14.00,2013-05-30 05:00:00,
2013-05-30 00:01:00,70.9,65.5,29.87,SSE,156,0.0,4.0,83,0.00,,CLR,0.00,VWS V14.00,2013-05-30 05:01:00,
2013-05-30 00:06:00,71.0,65.6,29.87,SSE,156,0.0,4.0,83,0.00,,CLR,0.00,VWS V14.00,2013-05-30 05:06:00,
2013-05-30 00:11:00,71.0,65.6,29.87,SSE,156,0.0,4.0,83,0.00,,CLR,0.00,VWS V14.00,2013-05-30 05:11:00,
2013-05-30 00:16:00,71.0,65.6,29.87,SSE,156,0.0,4.0,83,0.00,,CLR,0.00,VWS V14.00,2013-05-30 05:16:00,
2013-05-30 00:21:00,71.0,65.9,29.87,SSE,155,0.0,0.0,84,0.00,,SCT090,0.00,VWS V14.00,2013-05-30 05:21:00,
2013-05-30 00:26:00,70.9,65.8,29.87,SSE,153,0.0,4.0,84,0.00,,SCT090,0.00,VWS V14.00,2013-05-30 05:26:00,
2013-05-30 00:30:00,71.0,65.6,29.87,SSE,155,0.0,4.0,83,0.00,,OVC030,0.00,VWS V14.00,2013-05-30 05:30:00,
2013-05-30 00:31:00,70.8,65.7,29.87,SSE,153,0.0,4.0,84,0.00,,SCT090,0.00,VWS V14.00,2013-05-30 05:31:00,
2013-05-30 00:36:00,70.8,65.7,29.87,SSE,153,0.0,4.0,84,0.00,,SCT090,0.00,VWS V14.00,2013-05-30 05:36:00,
2013-05-30 00:41:00,70.8,65.7,29.87,SSE,153,0.0,4.0,84,0.00,,SCT090,0.00,VWS V14.00,2013-05-30 05:41:00,
2013-05-30 00:46:00,70.9,65.8,29.86,SSE,153,0.0,4.0,84,0.00,,SCT090,0.00,VWS V14.00,2013-05-30 05:46:00,
2013-05-30 00:51:00,71.0,65.9,29.86,SSE,155,0.0,0.0,84,0.00,,SCT090,0.00,VWS V14.00,2013-05-30 05:51:00,
2013-05-30 00:56:00,70.9,65.8,29.86,SSE,155,0.0,2.0,84,0.00,,SCT090,0.00,VWS V14.00,2013-05-30 05:56:00,
2013-05-30 01:00:00,70.9,65.8,29.86,SSE,155,0.0,5.0,84,0.00,,OVC030,0.00,VWS V14.00,2013-05-30 06:00:00,
2013-05-30 01:01:00,70.8,66.1,29.86,SSE,155,0.0,2.0,85,0.00,,SCT080,0.00,VWS V14.00,2013-05-30 06:01:00,
2013-05-30 01:06:00,70.8,66.1,29.86,SSE,153,0.0,2.0,85,0.00,,SCT080,0.00,VWS V14.00,2013-05-30 06:06:00,
2013-05-30 01:11:00,70.8,66.1,29.86,SSE,157,0.0,4.0,85,0.00,,SCT080,0.00,VWS V14.00,2013-05-30 06:11:00,
2013-05-30 01:16:00,70.8,66.1,29.86,SSE,157,0.0,4.0,85,0.00,,SCT080,0.00,VWS V14.00,2013-05-30 06:16:00,
2013-05-30 01:21:00,70.9,66.2,29.86,SSE,157,0.0,0.0,85,0.00,,SCT080,0.00,VWS V14.00,2013-05-30 06:21:00,
2013-05-30 01:26:00,71.0,66.3,29.86,SSE,152,0.0,2.0,85,0.00,,SCT080,0.00,VWS V14.00,2013-05-30 06:26:00,
2013-05-30 01:30:00,70.9,66.2,29.86,SSE,157,0.0,4.0,85,0.00,,OVC030,0.00,VWS V14.00,2013-05-30 06:30:00,
2013-05-30 01:31:00,71.0,66.3,29.86,SSE,152,0.0,2.0,85,0.00,,SCT080,0.00,VWS V14.00,2013-05-30 06:31:00,
2013-05-30 01:36:00,71.0,66.3,29.86,ESE,117,0.0,5.0,85,0.00,,SCT080,0.00,VWS V14.00,2013-05-30 06:36:00,
2013-05-30 01:41:00,71.0,66.3,29.86,South,180,1.0,5.0,85,0.00,,BKN090,0.00,VWS V14.00,2013-05-30 06:41:00,
2013-05-30 01:46:00,70.9,66.2,29.86,SSE,163,0.0,5.0,85,0.00,,BKN090,0.00,VWS V14.00,2013-05-30 06:46:00,
2013-05-30 01:51:00,70.9,66.2,29.85,SE,144,0.0,1.0,85,0.00,,BKN090,0.00,VWS V14.00,2013-05-30 06:51:00,
2013-05-30 01:57:00,70.9,66.2,29.85,SE,134,2.0,4.0,85,0.00,,BKN090,0.00,VWS V14.00,2013-05-30 06:57:00,
2013-05-30 02:00:00,70.9,66.2,29.85,SE,144,0.0,6.0,85,0.00,,OVC030,0.00,VWS V14.00,2013-05-30 07:00:00,
2013-05-30 02:02:00,71.0,66.3,29.85,SE,138,0.0,4.0,85,0.00,,SCT090,0.00,VWS V14.00,2013-05-30 07:02:00,
2013-05-30 02:07:00,71.2,66.5,29.85,ESE,115,0.0,5.0,85,0.00,,SCT090,0.00,VWS V14.00,2013-05-30 07:07:00,
2013-05-30 02:12:00,71.2,66.5,29.85,ESE,121,0.0,5.0,85,0.00,,SCT090,0.00,VWS V14.00,2013-05-30 07:12:00,
2013-05-30 02:17:00,71.2,66.5,29.85,SE,136,1.0,5.0,85,0.00,,SCT090,0.00,VWS V14.00,2013-05-30 07:17:00,
2013-05-30 02:22:00,71.2,66.5,29.85,SE,146,1.0,2.0,85,0.00,,SCT100,0.00,VWS V14.00,2013-05-30 07:22:00,
2013-05-30 02:27:00,71.1,66.4,29.85,SE,145,0.0,2.0,85,0.00,,SCT100,0.00,VWS V14.00,2013-05-30 07:27:00,
2013-05-30 02:30:00,71.2,66.5,29.85,SE,136,0.0,5.0,85,0.00,,OVC030,0.00,VWS V14.00,2013-05-30 07:30:00,
2013-05-30 02:32:00,71.1,66.4,29.85,SSE,153,0.0,5.0,85,0.00,,SCT100,0.00,VWS V14.00,2013-05-30 07:32:00,
2013-05-30 02:37:00,71.1,66.4,29.84,South,169,0.0,5.0,85,0.00,,SCT100,0.00,VWS V14.00,2013-05-30 07:37:00,
2013-05-30 02:42:00,71.0,66.6,29.84,SE,136,1.0,5.0,86,0.00,,SCT100,0.00,VWS V14.00,2013-05-30 07:42:00,
2013-05-30 02:47:00,71.0,66.6,29.84,SSE,161,0.0,6.0,86,0.00,,SCT100,0.00,VWS V14.00,2013-05-30 07:47:00,
2013-05-30 02:52:00,71.0,66.6,29.84,SSW,207,1.0,4.0,86,0.00,,SCT100,0.00,VWS V14.00,2013-05-30 07:52:00,
2013-05-30 02:57:00,70.9,66.5,29.84,SSW,207,1.0,4.0,86,0.00,,SCT100,0.00,VWS V14.00,2013-05-30 07:57:00,
2013-05-30 03:00:00,71.0,66.6,29.84,SSE,159,2.0,6.0,86,0.00,,OVC030,0.00,VWS V14.00,2013-05-30 08:00:00,
2013-05-30 03:02:00,70.8,66.4,29.84,SE,131,0.0,4.0,86,0.00,,CLR,0.00,VWS V14.00,2013-05-30 08:02:00,
2013-05-30 03:07:00,70.7,66.3,29.84,SE,132,0.0,4.0,86,0.00,,CLR,0.00,VWS V14.00,2013-05-30 08:07:00,
2013-05-30 03:12:00,70.6,66.2,29.84,South,175,1.0,4.0,86,0.00,,CLR,0.00,VWS V14.00,2013-05-30 08:12:00,
2013-05-30 03:17:00,70.6,66.2,29.84,South,170,0.0,6.0,86,0.00,,CLR,0.00,VWS V14.00,2013-05-30 08:17:00,
2013-05-30 03:22:00,70.6,66.6,29.84,East,93,6.0,6.0,87,0.00,,CLR,0.00,VWS V14.00,2013-05-30 08:22:00,
2013-05-30 03:27:00,70.6,66.2,29.84,East,94,0.0,6.0,86,0.00,,CLR,0.00,VWS V14.00,2013-05-30 08:27:00,
2013-05-30 03:30:00,70.6,66.2,29.84,South,170,0.0,6.0,86,0.00,,OVC030,0.00,VWS V14.00,2013-05-30 08:30:00,
2013-05-30 03:31:00,70.7,66.3,29.84,SSE,164,0.0,6.0,86,0.00,,CLR,0.00,VWS V14.00,2013-05-30 08:31:00,
2013-05-30 03:36:00,70.8,66.4,29.84,ESE,120,0.0,6.0,86,0.00,,CLR,0.00,VWS V14.00,2013-05-30 08:36:00,
2013-05-30 03:41:00,70.9,66.5,29.84,ESE,120,0.0,6.0,86,0.00,,CLR,0.00,VWS V14.00,2013-05-30 08:41:00,
2013-05-30 03:46:00,71.0,66.6,29.84,SSE,165,0.0,6.0,86,0.00,,CLR,0.00,VWS V14.00,2013-05-30 08:46:00,
2013-05-30 03:51:00,71.2,66.8,29.85,SSE,165,0.0,1.0,86,0.00,,CLR,0.00,VWS V14.00,2013-05-30 08:51:00,
2013-05-30 03:56:00,71.2,66.8,29.84,SSE,165,0.0,1.0,86,0.00,,CLR,0.00,VWS V14.00,2013-05-30 08:56:00,
2013-05-30 04:00:00,71.1,66.7,29.85,SSE,165,0.0,6.0,86,0.00,,OVC030,0.00,VWS V14.00,2013-05-30 09:00:00,
2013-05-30 04:01:00,71.2,66.8,29.84,SSE,165,0.0,1.0,86,0.00,,CLR,0.00,VWS V14.00,2013-05-30 09:01:00,
2013-05-30 04:06:00,71.2,66.8,29.85,South,174,1.0,6.0,86,0.00,,CLR,0.00,VWS V14.00,2013-05-30 09:06:00,
2013-05-30 04:11:00,71.2,66.8,29.85,South,174,0.0,6.0,86,0.00,,CLR,0.00,VWS V14.00,2013-05-30 09:11:00,
2013-05-30 04:16:00,71.1,66.7,29.85,South,186,0.0,6.0,86,0.00,,CLR,0.00,VWS V14.00,2013-05-30 09:16:00,
2013-05-30 04:21:00,71.1,66.7,29.85,South,186,1.0,1.0,86,0.00,,CLR,0.00,VWS V14.00,2013-05-30 09:21:00,
2013-05-30 04:26:00,71.0,66.6,29.85,South,186,1.0,2.0,86,0.00,,CLR,0.00,VWS V14.00,2013-05-30 09:26:00,
2013-05-30 04:30:00,71.1,66.7,29.85,South,186,0.0,6.0,86,0.00,,OVC030,0.00,VWS V14.00,2013-05-30 09:30:00,
2013-05-30 04:31:00,71.0,66.6,29.86,South,186,0.0,2.0,86,0.00,,CLR,0.00,VWS V14.00,2013-05-30 09:31:00,
2013-05-30 04:36:00,71.0,66.9,29.86,South,186,0.0,2.0,87,0.00,,CLR,0.00,VWS V14.00,2013-05-30 09:36:00,
2013-05-30 04:41:00,71.1,67.0,29.86,South,186,0.0,2.0,87,0.00,,SCT048,0.00,VWS V14.00,2013-05-30 09:41:00,
2013-05-30 04:46:00,71.1,67.0,29.86,South,186,0.0,2.0,87,0.00,,SCT048,0.00,VWS V14.00,2013-05-30 09:46:00,
2013-05-30 04:51:00,71.1,67.0,29.86,South,186,0.0,0.0,87,0.00,,SCT048,0.00,VWS V14.00,2013-05-30 09:51:00,
2013-05-30 04:56:00,71.1,67.0,29.86,South,186,0.0,2.0,87,0.00,,SCT048,0.00,VWS V14.00,2013-05-30 09:56:00,
2013-05-30 05:00:00,71.1,67.0,29.86,South,186,0.0,2.0,87,0.00,,OVC030,0.00,VWS V14.00,2013-05-30 10:00:00,
2013-05-30 05:01:00,71.0,66.9,29.86,South,186,0.0,2.0,87,0.00,,CLR,0.00,VWS V14.00,2013-05-30 10:01:00,
2013-05-30 05:06:00,71.0,66.9,29.86,South,186,0.0,2.0,87,0.00,,CLR,0.00,VWS V14.00,2013-05-30 10:06:00,
2013-05-30 05:11:00,70.9,66.8,29.86,South,186,0.0,2.0,87,0.00,,CLR,0.00,VWS V14.00,2013-05-30 10:11:00,
2013-05-30 05:16:00,71.0,66.9,29.86,South,186,1.0,2.0,87,0.00,,CLR,0.00,VWS V14.00,2013-05-30 10:16:00,
2013-05-30 05:21:00,71.1,67.0,29.86,South,182,0.0,0.0,87,0.00,,CLR,0.00,VWS V14.00,2013-05-30 10:21:00,
2013-05-30 05:26:00,71.1,67.0,29.86,South,182,0.0,2.0,87,0.00,,CLR,0.00,VWS V14.00,2013-05-30 10:26:00,
2013-05-30 05:30:00,71.1,67.0,29.86,South,182,0.0,2.0,87,0.00,,OVC030,0.00,VWS V14.00,2013-05-30 10:30:00,
2013-05-30 05:31:00,71.2,67.1,29.86,East,89,0.0,4.0,87,0.00,,CLR,0.00,VWS V14.00,2013-05-30 10:31:00,
2013-05-30 05:36:00,71.3,67.2,29.86,East,89,1.0,4.0,87,0.00,,CLR,0.00,VWS V14.00,2013-05-30 10:36:00,
2013-05-30 05:41:00,71.4,67.0,29.86,East,92,1.0,4.0,86,0.00,,CLR,0.00,VWS V14.00,2013-05-30 10:41:00,
2013-05-30 05:46:00,71.5,67.1,29.87,East,92,0.0,4.0,86,0.00,,CLR,0.00,VWS V14.00,2013-05-30 10:46:00,
2013-05-30 05:51:00,71.6,67.2,29.87,East,92,1.0,1.0,86,0.00,,CLR,0.00,VWS V14.00,2013-05-30 10:51:00,
2013-05-30 05:56:00,71.6,67.5,29.87,East,92,0.0,2.0,87,0.00,,CLR,0.00,VWS V14.00,2013-05-30 10:56:00,
2013-05-30 06:00:00,71.6,67.2,29.87,East,92,0.0,4.0,86,0.00,,OVC030,0.00,VWS V14.00,2013-05-30 11:00:00,
2013-05-30 06:01:00,71.6,67.2,29.87,SE,140,0.0,6.0,86,0.00,,CLR,0.00,VWS V14.00,2013-05-30 11:01:00,
2013-05-30 06:06:00,71.7,67.6,29.87,SE,140,0.0,6.0,87,0.00,,CLR,0.00,VWS V14.00,2013-05-30 11:06:00,
2013-05-30 06:11:00,71.7,67.6,29.87,SSE,150,0.0,6.0,87,0.00,,CLR,0.00,VWS V14.00,2013-05-30 11:11:00,
2013-05-30 06:16:00,71.7,67.6,29.87,ESE,117,0.0,6.0,87,0.00,,CLR,0.00,VWS V14.00,2013-05-30 11:16:00,
2013-05-30 06:21:00,71.7,67.6,29.87,ESE,117,0.0,1.0,87,0.00,,CLR,0.00,VWS V14.00,2013-05-30 11:21:00,
2013-05-30 06:26:00,71.7,67.6,29.87,ESE,120,0.0,2.0,87,0.00,,CLR,0.00,VWS V14.00,2013-05-30 11:26:00,
2013-05-30 06:30:00,71.7,67.6,29.87,ESE,117,1.0,6.0,87,0.00,,OVC030,0.00,VWS V14.00,2013-05-30 11:30:00,
2013-05-30 06:31:00,71.8,67.7,29.87,West,279,0.0,2.0,87,0.00,,CLR,0.00,VWS V14.00,2013-05-30 11:31:00,
2013-05-30 06:36:00,71.8,67.7,29.87,West,259,2.0,3.0,87,0.00,,CLR,0.00,VWS V14.00,2013-05-30 11:36:00,
2013-05-30 06:41:00,71.8,67.7,29.87,WSW,257,0.0,3.0,87,0.00,,CLR,0.00,VWS V14.00,2013-05-30 11:41:00,
2013-05-30 06:46:00,71.9,67.8,29.87,South,190,0.0,4.0,87,0.00,,CLR,0.00,VWS V14.00,2013-05-30 11:46:00,
2013-05-30 06:51:00,72.1,68.0,29.87,SSE,152,0.0,0.0,87,0.00,,CLR,0.00,VWS V14.00,2013-05-30 11:51:00,
2013-05-30 06:56:00,72.4,68.7,29.87,SSE,150,1.0,4.0,88,0.00,,CLR,0.00,VWS V14.00,2013-05-30 11:56:00,
2013-05-30 07:00:00,72.1,68.0,29.87,SSE,152,0.0,4.0,87,0.00,,OVC030,0.00,VWS V14.00,2013-05-30 12:00:00,
2013-05-30 07:01:00,72.6,68.5,29.87,SSE,148,0.0,5.0,87,0.00,,CLR,0.00,VWS V14.00,2013-05-30 12:01:00,
2013-05-30 07:06:00,73.1,69.0,29.87,SSE,164,0.0,5.0,87,0.00,,CLR,0.00,VWS V14.00,2013-05-30 12:06:00,
2013-05-30 07:11:00,73.3,68.9,29.87,ENE,59,1.0,5.0,86,0.00,,CLR,0.00,VWS V14.00,2013-05-30 12:11:00,
2013-05-30 07:16:00,73.4,69.0,29.87,WNW,289,1.0,5.0,86,0.00,,CLR,0.00,VWS V14.00,2013-05-30 12:16:00,
2013-05-30 07:21:00,73.5,69.1,29.87,ESE,102,1.0,5.0,86,0.00,,SCT110,0.00,VWS V14.00,2013-05-30 12:21:00,
2013-05-30 07:26:00,73.7,68.9,29.87,SSE,157,0.0,7.0,85,0.00,,SCT110,0.00,VWS V14.00,2013-05-30 12:26:00,
2013-05-30 07:30:00,73.5,69.1,29.87,ESE,102,1.0,5.0,86,0.00,,OVC030,0.00,VWS V14.00,2013-05-30 12:30:00,
2013-05-30 07:31:00,73.8,69.0,29.87,SSE,165,1.0,7.0,85,0.00,,SCT110,0.00,VWS V14.00,2013-05-30 12:31:00,
2013-05-30 07:36:00,74.1,69.7,29.87,SSE,168,0.0,7.0,86,0.00,,SCT110,0.00,VWS V14.00,2013-05-30 12:36:00,
2013-05-30 07:41:00,74.6,70.1,29.87,SSE,167,0.0,7.0,86,0.00,,SCT110,0.00,VWS V14.00,2013-05-30 12:41:00,
2013-05-30 07:46:00,74.9,69.7,29.87,West,263,0.0,7.0,84,0.00,,SCT110,0.00,VWS V14.00,2013-05-30 12:46:00,
2013-05-30 07:51:00,75.1,69.9,29.87,NE,43,5.0,7.0,84,0.00,,SCT110,0.00,VWS V14.00,2013-05-30 12:51:00,
2013-05-30 07:56:00,75.3,70.1,29.87,East,79,0.0,4.0,84,0.00,,SCT110,0.00,VWS V14.00,2013-05-30 12:56:00,
2013-05-30 08:00:00,75.1,69.9,29.87,NNE,23,3.0,7.0,84,0.00,,OVC030,0.00,VWS V14.00,2013-05-30 13:00:00,
2013-05-30 08:01:00,75.5,70.3,29.87,SSW,212,0.0,4.0,84,0.00,,SCT026,0.00,VWS V14.00,2013-05-30 13:01:00,
2013-05-30 08:06:00,75.5,70.3,29.88,SE,126,2.0,6.0,84,0.00,,SCT026,0.00,VWS V14.00,2013-05-30 13:06:00,
2013-05-30 08:11:00,75.3,70.1,29.88,SW,225,1.0,6.0,84,0.00,,SCT026,0.00,VWS V14.00,2013-05-30 13:11:00,
2013-05-30 08:16:00,75.1,69.9,29.88,ENE,68,0.0,6.0,84,0.00,,SCT026,0.00,VWS V14.00,2013-05-30 13:16:00,
2013-05-30 08:21:00,74.9,69.7,29.88,South,190,0.0,7.0,84,0.00,,BKN110,0.00,VWS V14.00,2013-05-30 13:21:00,
2013-05-30 08:26:00,75.0,69.8,29.87,South,186,2.0,2.0,84,0.00,,BKN110,0.00,VWS V14.00,2013-05-30 13:26:00,
2013-05-30 08:30:00,74.8,69.7,29.88,South,190,1.0,7.0,84,0.00,,OVC030,0.00,VWS V14.00,2013-05-30 13:30:00,
2013-05-30 08:31:00,75.5,70.3,29.87,WSW,246,1.0,7.0,84,0.00,,BKN110,0.00,VWS V14.00,2013-05-30 13:31:00,
2013-05-30 08:36:00,76.0,70.1,29.87,South,174,5.0,11.0,82,0.00,,BKN110,0.00,VWS V14.00,2013-05-30 13:36:00,
2013-05-30 08:41:00,76.7,70.8,29.87,SE,136,1.0,11.0,82,0.00,,BKN110,0.00,VWS V14.00,2013-05-30 13:41:00,
2013-05-30 08:46:00,77.5,71.6,29.87,WSW,245,2.0,11.0,82,0.00,,BKN110,0.00,VWS V14.00,2013-05-30 13:46:00,
2013-05-30 08:51:00,77.6,71.3,29.87,SSW,194,2.0,11.0,81,0.00,,BKN110,0.00,VWS V14.00,2013-05-30 13:51:00,
2013-05-30 08:55:00,77.6,70.6,29.87,ESE,117,5.0,10.0,79,0.00,,BKN110,0.00,VWS V14.00,2013-05-30 13:55:00,
2013-05-30 09:00:00,77.8,71.1,29.88,SE,135,1.0,10.0,80,0.00,,BKN110,0.00,VWS V14.00,2013-05-30 14:00:00,
2013-05-30 09:05:00,77.7,70.7,29.88,South,190,1.0,10.0,79,0.00,,BKN110,0.00,VWS V14.00,2013-05-30 14:05:00,
2013-05-30 09:10:00,77.3,70.7,29.88,ENE,71,0.0,10.0,80,0.00,,BKN110,0.00,VWS V14.00,2013-05-30 14:10:00,
2013-05-30 09:15:00,77.1,70.8,29.87,South,180,3.0,10.0,81,0.00,,BKN110,0.00,VWS V14.00,2013-05-30 14:15:00,
2013-05-30 09:20:00,77.5,71.2,29.87,SW,235,2.0,10.0,81,0.00,,BKN049,0.00,VWS V14.00,2013-05-30 14:20:00,
2013-05-30 09:25:00,77.5,71.2,29.87,South,171,2.0,8.0,81,0.00,,BKN049,0.00,VWS V14.00,2013-05-30 14:25:00,
2013-05-30 09:30:00,77.2,70.6,29.87,NNW,344,1.0,8.0,80,0.00,,BKN049,0.00,VWS V14.00,2013-05-30 14:30:00,
2013-05-30 09:35:00,77.0,70.7,29.87,South,180,1.0,8.0,81,0.00,,BKN049,0.00,VWS V14.00,2013-05-30 14:35:00,
2013-05-30 09:40:00,77.0,70.7,29.87,SW,219,1.0,8.0,81,0.00,,BKN041,0.00,VWS V14.00,2013-05-30 14:40:00,
2013-05-30 09:45:00,76.9,70.3,29.87,South,175,4.0,8.0,80,0.00,,BKN041,0.00,VWS V14.00,2013-05-30 14:45:00,
2013-05-30 09:50:00,76.7,70.1,29.86,SSE,152,1.0,8.0,80,0.00,,BKN041,0.00,VWS V14.00,2013-05-30 14:50:00,
2013-05-30 09:55:00,77.0,71.4,29.86,SSE,150,1.0,8.0,83,0.00,,BKN041,0.00,VWS V14.00,2013-05-30 14:55:00,
2013-05-30 10:00:00,77.3,71.0,29.86,WSW,240,1.0,8.0,81,0.00,,OVC034,0.00,VWS V14.00,2013-05-30 15:00:00,
2013-05-30 10:05:00,77.6,71.3,29.86,SSE,165,2.0,8.0,81,0.00,,OVC034,0.00,VWS V14.00,2013-05-30 15:05:00,
2013-05-30 10:10:00,78.0,71.3,29.87,South,180,3.0,8.0,80,0.00,,OVC034,0.00,VWS V14.00,2013-05-30 15:10:00,
2013-05-30 10:15:00,77.9,70.9,29.87,SW,229,4.0,8.0,79,0.00,,OVC034,0.00,VWS V14.00,2013-05-30 15:15:00,
2013-05-30 10:20:00,77.3,70.7,29.86,SW,228,0.0,8.0,80,0.00,,OVC036,0.00,VWS V14.00,2013-05-30 15:20:00,
2013-05-30 10:25:00,77.3,71.0,29.86,SW,222,2.0,5.0,81,0.00,,OVC036,0.00,VWS V14.00,2013-05-30 15:25:00,
2013-05-30 10:30:00,77.8,71.5,29.86,ESE,111,0.0,4.0,81,0.00,,OVC036,0.00,VWS V14.00,2013-05-30 15:30:00,
2013-05-30 10:35:00,78.2,72.3,29.86,ESE,113,1.0,4.0,82,0.00,,OVC036,0.00,VWS V14.00,2013-05-30 15:35:00,
2013-05-30 10:40:00,78.4,71.3,29.86,East,95,6.0,9.0,79,0.00,,OVC045,0.00,VWS V14.00,2013-05-30 15:40:00,
2013-05-30 10:45:00,78.4,71.3,29.86,South,186,4.0,9.0,79,0.00,,OVC045,0.00,VWS V14.00,2013-05-30 15:45:00,
2013-05-30 10:50:00,78.7,71.6,29.86,SW,222,2.0,9.0,79,0.00,,OVC045,0.00,VWS V14.00,2013-05-30 15:50:00,
2013-05-30 10:55:00,78.4,71.0,29.86,South,182,2.0,6.0,78,0.00,,OVC045,0.00,VWS V14.00,2013-05-30 15:55:00,
2013-05-30 11:00:00,78.7,73.1,29.86,SSW,193,1.0,6.0,83,0.00,,BKN050,0.00,VWS V14.00,2013-05-30 16:00:00,
2013-05-30 11:05:00,79.7,72.6,29.86,WSW,257,0.0,6.0,79,0.00,,BKN050,0.00,VWS V14.00,2013-05-30 16:05:00,
2013-05-30 11:10:00,80.0,72.5,29.86,SW,227,1.0,6.0,78,0.00,,BKN050,0.00,VWS V14.00,2013-05-30 16:10:00,
2013-05-30 11:15:00,79.8,72.3,29.86,SW,232,0.0,6.0,78,0.00,,BKN050,0.00,VWS V14.00,2013-05-30 16:15:00,
2013-05-30 11:20:00,79.4,71.6,29.86,SW,227,0.0,6.0,77,0.00,,BKN048,0.00,VWS V14.00,2013-05-30 16:20:00,
2013-05-30 11:25:00,79.3,72.2,29.86,SW,225,2.0,4.0,79,0.00,,BKN048,0.00,VWS V14.00,2013-05-30 16:25:00,
2013-05-30 11:30:00,78.9,71.1,29.86,SSW,211,1.0,5.0,77,0.00,,BKN048,0.00,VWS V14.00,2013-05-30 16:30:00,
2013-05-30 11:35:00,78.6,71.6,29.85,SW,215,1.0,5.0,79,0.00,,BKN048,0.00,VWS V14.00,2013-05-30 16:35:00,
2013-05-30 11:40:00,79.3,72.2,29.85,NNE,28,2.0,9.0,79,0.00,,SCT048,0.00,VWS V14.00,2013-05-30 16:40:00,
2013-05-30 11:45:00,80.2,73.1,29.85,SW,218,1.0,9.0,79,0.00,,SCT048,0.00,VWS V14.00,2013-05-30 16:45:00,
2013-05-30 11:50:00,81.4,73.1,29.85,SW,234,3.0,9.0,76,0.00,,SCT048,0.00,VWS V14.00,2013-05-30 16:50:00,
2013-05-30 11:55:00,82.6,73.9,29.85,West,275,3.0,5.0,75,0.00,,SCT048,0.00,VWS V14.00,2013-05-30 16:55:00,
2013-05-30 12:00:00,82.4,72.5,29.85,SE,124,1.0,6.0,72,0.00,,SCT050,0.00,VWS V14.00,2013-05-30 17:00:00,
2013-05-30 12:05:00,81.8,71.9,29.84,SSE,161,2.0,6.0,72,0.00,,SCT050,0.00,VWS V14.00,2013-05-30 17:05:00,
2013-05-30 12:10:00,81.1,70.8,29.85,West,275,1.0,6.0,71,0.00,,SCT050,0.00,VWS V14.00,2013-05-30 17:10:00,
2013-05-30 12:15:00,80.2,70.8,29.84,NNE,17,2.0,6.0,73,0.00,,SCT050,0.00,VWS V14.00,2013-05-30 17:15:00,
2013-05-30 12:20:00,79.4,70.4,29.85,South,186,2.0,7.0,74,0.00,,BKN050,0.00,VWS V14.00,2013-05-30 17:20:00,
2013-05-30 12:25:00,79.1,69.7,29.84,SSW,194,1.0,7.0,73,0.00,,BKN050,0.00,VWS V14.00,2013-05-30 17:25:00,
2013-05-30 12:30:00,79.1,71.3,29.85,SSW,198,1.0,7.0,77,0.00,,BKN050,0.00,VWS V14.00,2013-05-30 17:30:00,
2013-05-30 12:35:00,80.0,72.5,29.85,SW,226,5.0,7.0,78,0.00,,BKN050,0.00,VWS V14.00,2013-05-30 17:35:00,
2013-05-30 12:40:00,80.6,72.3,29.85,ESE,118,11.0,11.0,76,0.00,,BKN060,0.00,VWS V14.00,2013-05-30 17:40:00,
2013-05-30 12:45:00,80.8,71.7,29.85,SSW,194,2.0,11.0,74,0.00,,BKN060,0.00,VWS V14.00,2013-05-30 17:45:00,
2013-05-30 12:50:00,80.9,71.8,29.85,SSE,157,2.0,5.0,74,0.00,,BKN060,0.00,VWS V14.00,2013-05-30 17:50:00,
2013-05-30 12:55:00,80.9,71.8,29.85,SSW,197,4.0,6.0,74,0.00,,BKN060,0.00,VWS V14.00,2013-05-30 17:55:00,
2013-05-30 13:00:00,81.1,72.0,29.85,SSW,210,3.0,6.0,74,0.00,,SCT060,0.00,VWS V14.00,2013-05-30 18:00:00,
2013-05-30 13:05:00,81.2,72.5,29.85,South,187,4.0,9.0,75,0.00,,SCT060,0.00,VWS V14.00,2013-05-30 18:05:00,
2013-05-30 13:10:00,80.8,71.3,29.85,South,185,1.0,9.0,73,0.00,,SCT060,0.00,VWS V14.00,2013-05-30 18:10:00,
2013-05-30 13:15:00,80.0,71.4,29.85,WSW,252,3.0,9.0,75,0.00,,SCT060,0.00,VWS V14.00,2013-05-30 18:15:00,
2013-05-30 13:20:00,79.6,72.5,29.85,WSW,238,2.0,9.0,79,0.00,,-RA,0.00,VWS V14.00,2013-05-30 18:20:00,
2013-05-30 13:25:00,80.6,73.1,29.84,West,265,3.0,5.0,78,0.00,,-RA,0.00,VWS V14.00,2013-05-30 18:25:00,
2013-05-30 13:30:00,81.5,72.8,29.84,South,183,3.0,9.0,75,0.00,,-RA,0.00,VWS V14.00,2013-05-30 18:30:00,
2013-05-30 13:35:00,82.4,73.7,29.83,ESE,103,4.0,9.0,75,0.00,,-RA,0.00,VWS V14.00,2013-05-30 18:35:00,
2013-05-30 13:40:00,83.4,73.4,29.84,South,178,2.0,9.0,72,0.00,,SCT050,0.00,VWS V14.00,2013-05-30 18:40:00,
2013-05-30 13:45:00,84.5,74.5,29.84,SSW,199,3.0,9.0,72,0.00,,SCT050,0.00,VWS V14.00,2013-05-30 18:45:00,
2013-05-30 13:50:00,84.9,74.4,29.83,South,176,2.0,9.0,71,0.00,,SCT050,0.00,VWS V14.00,2013-05-30 18:50:00,
2013-05-30 13:55:00,84.8,73.1,29.84,South,182,2.0,7.0,68,0.00,,SCT050,0.00,VWS V14.00,2013-05-30 18:55:00,
2013-05-30 14:00:00,85.1,73.8,29.83,SSW,208,2.0,7.0,69,0.00,,CLR,0.00,VWS V14.00,2013-05-30 19:00:00,
2013-05-30 14:05:00,85.6,73.4,29.83,SSW,202,2.0,7.0,67,0.00,,CLR,0.00,VWS V14.00,2013-05-30 19:05:00,
2013-05-30 14:10:00,85.7,73.9,29.83,SSW,201,2.0,9.0,68,0.00,,CLR,0.00,VWS V14.00,2013-05-30 19:10:00,
2013-05-30 14:15:00,84.2,71.6,29.84,East,94,9.0,9.0,66,0.00,,CLR,0.00,VWS V14.00,2013-05-30 19:15:00,
2013-05-30 14:20:00,82.6,71.0,29.83,SSE,165,4.0,9.0,68,0.00,,SCT055,0.00,VWS V14.00,2013-05-30 19:20:00,
2013-05-30 14:25:00,80.6,70.3,29.85,South,173,1.0,6.0,71,0.00,,SCT055,0.00,VWS V14.00,2013-05-30 19:25:00,
2013-05-30 14:30:00,77.2,69.8,29.84,SW,215,6.0,12.0,78,0.00,,SCT055,0.00,VWS V14.00,2013-05-30 19:30:00,
2013-05-30 14:35:00,74.4,68.9,29.83,West,259,1.0,12.0,83,0.01,,SCT055,0.01,VWS V14.00,2013-05-30 19:35:00,
2013-05-30 14:40:00,73.0,68.2,29.83,West,263,0.0,12.0,85,0.01,,SCT040,0.01,VWS V14.00,2013-05-30 19:40:00,
2013-05-30 14:45:00,72.6,68.8,29.83,West,263,0.0,12.0,88,0.01,,SCT040,0.01,VWS V14.00,2013-05-30 19:45:00,
2013-05-30 14:50:00,72.6,69.5,29.82,West,263,0.0,12.0,90,0.02,,SCT040,0.02,VWS V14.00,2013-05-30 19:50:00,
2013-05-30 14:55:00,73.0,70.2,29.82,WSW,237,0.0,1.0,91,0.02,,SCT040,0.02,VWS V14.00,2013-05-30 19:55:00,
2013-05-30 15:00:00,73.2,70.4,29.82,WSW,237,3.0,3.0,91,0.02,,-RA,0.02,VWS V14.00,2013-05-30 20:00:00,
2013-05-30 15:05:00,73.3,70.5,29.82,WSW,237,2.0,4.0,91,0.02,,-RA,0.02,VWS V14.00,2013-05-30 20:05:00,
2013-05-30 15:10:00,73.3,70.5,29.82,WSW,237,4.0,4.0,91,0.02,,-RA,0.02,VWS V14.00,2013-05-30 20:10:00,
2013-05-30 15:15:00,73.1,70.0,29.82,WSW,254,0.0,6.0,90,0.02,,-RA,0.02,VWS V14.00,2013-05-30 20:15:00,
2013-05-30 15:20:00,72.9,70.1,29.81,WSW,254,2.0,6.0,91,0.02,,RA,0.02,VWS V14.00,2013-05-30 20:20:00,
2013-05-30 15:25:00,72.8,70.0,29.81,ESE,121,0.0,5.0,91,0.02,,RA,0.02,VWS V14.00,2013-05-30 20:25:00,
2013-05-30 15:30:00,72.8,70.0,29.82,SE,138,0.0,5.0,91,0.02,,RA,0.02,VWS V14.00,2013-05-30 20:30:00,
2013-05-30 15:35:00,72.8,70.0,29.82,SE,138,1.0,5.0,91,0.02,,RA,0.02,VWS V14.00,2013-05-30 20:35:00,
2013-05-30 15:39:00,72.9,69.8,29.82,SSE,163,6.0,7.0,90,0.02,,-RA,0.02,VWS V14.00,2013-05-30 20:39:00,
2013-05-30 15:44:00,72.7,68.9,29.82,WSW,240,3.0,7.0,88,0.02,,-RA,0.02,VWS V14.00,2013-05-30 20:44:00,
2013-05-30 15:49:00,72.3,68.6,29.82,WSW,258,2.0,8.0,88,0.02,,-RA,0.02,VWS V14.00,2013-05-30 20:49:00,
2013-05-30 15:54:00,72.3,68.9,29.82,West,273,2.0,4.0,89,0.00,,-RA,0.02,VWS V14.00,2013-05-30 20:54:00,
2013-05-30 15:59:00,72.9,69.8,29.82,West,273,1.0,4.0,90,0.01,,-RA,0.03,VWS V14.00,2013-05-30 20:59:00,
2013-05-30 16:00:00,72.2,68.4,29.82,SW,227,4.0,8.0,88,0.02,,OVC030,0.02,VWS V14.00,2013-05-30 21:00:00,
2013-05-30 16:04:00,73.9,71.1,29.81,WSW,250,2.0,4.0,91,0.01,,-RA,0.03,VWS V14.00,2013-05-30 21:04:00,
2013-05-30 16:09:00,74.6,70.8,29.80,South,182,1.0,5.0,88,0.01,,-RA,0.03,VWS V14.00,2013-05-30 21:09:00,
2013-05-30 16:14:00,75.3,71.2,29.79,South,182,0.0,5.0,87,0.01,,-RA,0.03,VWS V14.00,2013-05-30 21:14:00,
2013-05-30 16:19:00,76.2,71.7,29.80,South,181,1.0,5.0,86,0.01,,CLR,0.03,VWS V14.00,2013-05-30 21:19:00,
2013-05-30 16:24:00,77.1,71.9,29.79,SSW,197,0.0,3.0,84,0.01,,CLR,0.03,VWS V14.00,2013-05-30 21:24:00,
2013-05-30 16:29:00,78.0,72.8,29.79,SSW,197,3.0,3.0,84,0.01,,CLR,0.03,VWS V14.00,2013-05-30 21:29:00,
2013-05-30 16:30:00,76.4,71.2,29.80,South,190,0.0,9.0,84,0.01,,OVC030,0.03,VWS V14.00,2013-05-30 21:30:00,
2013-05-30 16:34:00,78.8,73.6,29.79,SSE,155,0.0,4.0,84,0.01,,CLR,0.03,VWS V14.00,2013-05-30 21:34:00,
2013-05-30 16:39:00,79.3,72.6,29.79,SSW,210,1.0,5.0,80,0.01,,CLR,0.03,VWS V14.00,2013-05-30 21:39:00,
2013-05-30 16:44:00,79.8,73.1,29.78,West,260,1.0,5.0,80,0.01,,CLR,0.03,VWS V14.00,2013-05-30 21:44:00,
2013-05-30 16:49:00,80.4,73.7,29.78,WSW,242,0.0,5.0,80,0.01,,CLR,0.03,VWS V14.00,2013-05-30 21:49:00,
2013-05-30 16:54:00,81.1,73.6,29.77,NE,38,1.0,4.0,78,0.01,,CLR,0.03,VWS V14.00,2013-05-30 21:54:00,
2013-05-30 16:59:00,81.5,74.0,29.77,SSW,207,3.0,5.0,78,0.01,,CLR,0.03,VWS V14.00,2013-05-30 21:59:00,
2013-05-30 17:00:00,80.6,73.1,29.78,ENE,74,0.0,5.0,78,0.01,,OVC030,0.03,VWS V14.00,2013-05-30 22:00:00,
2013-05-30 17:04:00,82.0,74.1,29.77,SSW,204,7.0,8.0,77,0.01,,CLR,0.03,VWS V14.00,2013-05-30 22:04:00,
2013-05-30 17:09:00,82.1,73.8,29.77,WSW,257,1.0,10.0,76,0.01,,CLR,0.03,VWS V14.00,2013-05-30 22:09:00,
2013-05-30 17:14:00,82.4,73.7,29.77,SW,225,2.0,10.0,75,0.01,,CLR,0.03,VWS V14.00,2013-05-30 22:14:00,
2013-05-30 17:19:00,82.6,72.7,29.77,SW,225,3.0,10.0,72,0.01,,CLR,0.03,VWS V14.00,2013-05-30 22:19:00,
2013-05-30 17:24:00,82.4,73.3,29.77,NE,56,1.0,5.0,74,0.00,,CLR,0.03,VWS V14.00,2013-05-30 22:24:00,
2013-05-30 17:29:00,82.3,73.6,29.77,SSW,211,1.0,5.0,75,0.00,,CLR,0.03,VWS V14.00,2013-05-30 22:29:00,
2013-05-30 17:30:00,82.5,73.4,29.77,SW,225,0.0,10.0,74,0.01,,OVC030,0.03,VWS V14.00,2013-05-30 22:30:00,
2013-05-30 17:34:00,82.0,73.7,29.76,South,187,1.0,6.0,76,0.00,,CLR,0.03,VWS V14.00,2013-05-30 22:34:00,
2013-05-30 17:39:00,81.7,73.0,29.76,SSW,211,1.0,6.0,75,0.00,,CLR,0.03,VWS V14.00,2013-05-30 22:39:00,
2013-05-30 17:44:00,81.7,72.2,29.76,SSE,163,1.0,6.0,73,0.00,,CLR,0.03,VWS V14.00,2013-05-30 22:44:00,
2013-05-30 17:49:00,81.9,73.6,29.76,SSW,201,1.0,6.0,76,0.00,,CLR,0.03,VWS V14.00,2013-05-30 22:49:00,
2013-05-30 17:54:00,81.9,72.8,29.76,West,261,1.0,3.0,74,0.00,,CLR,0.03,VWS V14.00,2013-05-30 22:54:00,
2013-05-30 17:59:00,81.4,72.7,29.76,WSW,257,1.0,3.0,75,0.00,,CLR,0.03,VWS V14.00,2013-05-30 22:59:00,
2013-05-30 18:00:00,82.0,73.7,29.76,West,261,3.0,6.0,76,0.00,,OVC030,0.03,VWS V14.00,2013-05-30 23:00:00,
2013-05-30 18:04:00,80.8,72.1,29.76,West,259,2.0,3.0,75,0.00,,CLR,0.03,VWS V14.00,2013-05-30 23:04:00,
2013-05-30 18:09:00,80.1,71.9,29.76,SW,217,0.0,5.0,76,0.00,,CLR,0.03,VWS V14.00,2013-05-30 23:09:00,
2013-05-30 18:14:00,79.6,72.5,29.76,SW,217,1.0,5.0,79,0.00,,CLR,0.03,VWS V14.00,2013-05-30 23:14:00,
2013-05-30 18:19:00,79.5,72.4,29.76,SW,217,0.0,5.0,79,0.00,,CLR,0.03,VWS V14.00,2013-05-30 23:19:00,
2013-05-30 18:24:00,79.2,71.0,29.76,SSW,199,2.0,10.0,76,0.00,,CLR,0.03,VWS V14.00,2013-05-30 23:24:00,
2013-05-30 18:29:00,78.7,70.9,29.76,South,185,1.0,10.0,77,0.00,,CLR,0.03,VWS V14.00,2013-05-30 23:29:00,
2013-05-30 18:30:00,79.4,71.2,29.76,SSE,167,0.0,5.0,76,0.00,,OVC030,0.03,VWS V14.00,2013-05-30 23:30:00,
2013-05-30 18:34:00,78.2,70.4,29.77,SW,221,1.0,10.0,77,0.00,,CLR,0.03,VWS V14.00,2013-05-30 23:34:00,
2013-05-30 18:39:00,77.6,70.2,29.78,SW,232,3.0,10.0,78,0.00,,SCT100,0.03,VWS V14.00,2013-05-30 23:39:00,
2013-05-30 18:44:00,77.3,69.9,29.79,SSW,197,0.0,10.0,78,0.00,,SCT100,0.03,VWS V14.00,2013-05-30 23:44:00,
2013-05-30 18:49:00,77.1,70.1,29.79,South,182,0.0,10.0,79,0.00,,SCT100,0.03,VWS V14.00,2013-05-30 23:49:00,
2013-05-30 18:54:00,76.9,69.9,29.79,South,182,0.0,2.0,79,0.00,,SCT100,0.03,VWS V14.00,2013-05-30 23:54:00,
2013-05-30 18:59:00,76.7,70.1,29.80,SW,221,2.0,4.0,80,0.00,,SCT100,0.03,VWS V14.00,2013-05-30 23:59:00,
2013-05-30 19:00:00,77.0,70.4,29.79,South,182,0.0,10.0,80,0.00,,OVC030,0.03,VWS V14.00,2013-05-31 00:00:00,
2013-05-30 19:04:00,76.5,69.9,29.80,SW,221,0.0,4.0,80,0.01,,SCT100,0.04,VWS V14.00,2013-05-31 00:04:00,
2013-05-30 19:09:00,76.3,69.7,29.80,SW,220,0.0,4.0,80,0.01,,SCT100,0.04,VWS V14.00,2013-05-31 00:09:00,
2013-05-30 19:14:00,76.1,69.8,29.80,SW,220,1.0,4.0,81,0.01,,SCT100,0.04,VWS V14.00,2013-05-31 00:14:00,
2013-05-30 19:19:00,76.0,69.8,29.79,NNE,24,0.0,4.0,81,0.01,,CLR,0.04,VWS V14.00,2013-05-31 00:19:00,
2013-05-30 19:24:00,75.8,69.6,29.79,NNE,24,0.0,2.0,81,0.01,,CLR,0.04,VWS V14.00,2013-05-31 00:24:00,
2013-05-30 19:29:00,75.5,69.6,29.79,NNE,16,0.0,3.0,82,0.01,,CLR,0.04,VWS V14.00,2013-05-31 00:29:00,
2013-05-30 19:30:00,75.9,69.7,29.79,NNE,24,0.0,4.0,81,0.01,,OVC030,0.04,VWS V14.00,2013-05-31 00:30:00,
2013-05-30 19:34:00,75.3,69.4,29.80,NNE,16,0.0,3.0,82,0.01,,CLR,0.04,VWS V14.00,2013-05-31 00:34:00,
2013-05-30 19:40:00,75.1,69.2,29.80,NNE,16,0.0,3.0,82,0.01,,SCT070,0.04,VWS V14.00,2013-05-31 00:40:00,
2013-05-30 19:45:00,75.1,69.2,29.81,NNE,16,0.0,3.0,82,0.01,,SCT070,0.04,VWS V14.00,2013-05-31 00:45:00,
2013-05-30 19:50:00,75.2,69.3,29.81,West,268,7.0,7.0,82,0.01,,SCT070,0.04,VWS V14.00,2013-05-31 00:50:00,
2013-05-30 19:55:00,75.2,67.1,29.82,West,270,11.0,14.0,76,0.01,,SCT070,0.04,VWS V14.00,2013-05-31 00:55:00,
2013-05-30 20:00:00,73.6,65.6,29.82,West,259,8.0,14.0,76,0.01,,BKN060,0.04,VWS V14.00,2013-05-31 01:00:00,
2013-05-30 20:05:00,72.3,65.1,29.82,WNW,292,2.0,14.0,78,0.01,,BKN060,0.04,VWS V14.00,2013-05-31 01:05:00,
2013-05-30 20:10:00,71.6,64.8,29.82,West,269,5.0,14.0,79,0.01,,BKN060,0.04,VWS V14.00,2013-05-31 01:10:00,
2013-05-30 20:15:00,70.7,64.2,29.81,WNW,290,0.0,14.0,80,0.01,,BKN060,0.04,VWS V14.00,2013-05-31 01:15:00,
2013-05-30 20:20:00,70.1,64.4,29.81,WNW,290,2.0,14.0,82,0.01,,SCT060,0.04,VWS V14.00,2013-05-31 01:20:00,
2013-05-30 20:25:00,69.8,64.1,29.81,WNW,290,3.0,3.0,82,0.00,,SCT060,0.04,VWS V14.00,2013-05-31 01:25:00,
2013-05-30 20:30:00,69.4,64.0,29.82,West,261,0.0,10.0,83,0.00,,SCT060,0.04,VWS V14.00,2013-05-31 01:30:00,
2013-05-30 20:35:00,69.2,64.2,29.83,West,265,0.0,10.0,84,0.00,,SCT060,0.04,VWS V14.00,2013-05-31 01:35:00,
2013-05-30 20:40:00,68.8,65.1,29.85,ESE,108,2.0,10.0,88,0.00,,BKN065,0.04,VWS V14.00,2013-05-31 01:40:00,
2013-05-30 20:44:00,68.1,65.1,29.84,SW,235,4.0,11.0,90,0.00,,BKN065,0.04,VWS V14.00,2013-05-31 01:44:00,
2013-05-30 20:49:00,67.6,64.6,29.83,WSW,242,6.0,13.0,90,0.00,,BKN065,0.04,VWS V14.00,2013-05-31 01:49:00,
2013-05-30 20:54:00,67.7,65.0,29.83,SW,216,4.0,4.0,91,0.00,,BKN065,0.04,VWS V14.00,2013-05-31 01:54:00,
2013-05-30 20:59:00,68.0,65.6,29.85,SSW,199,3.0,13.0,92,0.00,,OVC060,0.04,VWS V14.00,2013-05-31 01:59:00,
2013-05-30 21:00:00,67.5,64.5,29.81,South,180,1.0,13.0,90,0.00,,OVC030,0.04,VWS V14.00,2013-05-31 02:00:00,
2013-05-30 21:04:00,67.8,65.7,29.86,WSW,241,4.0,13.0,93,0.00,,OVC060,0.04,VWS V14.00,2013-05-31 02:04:00,
2013-05-30 21:09:00,67.4,65.0,29.85,WSW,240,2.0,13.0,92,0.00,,OVC060,0.04,VWS V14.00,2013-05-31 02:09:00,
2013-05-30 21:14:00,67.1,64.7,29.84,WSW,243,2.0,13.0,92,0.00,,OVC060,0.04,VWS V14.00,2013-05-31 02:14:00,
2013-05-30 21:19:00,66.8,64.4,29.86,WSW,243,2.0,13.0,92,0.00,,OVC043,0.04,VWS V14.00,2013-05-31 02:19:00,
2013-05-30 21:24:00,66.6,64.5,29.85,SSE,147,7.0,9.0,93,0.00,,OVC043,0.04,VWS V14.00,2013-05-31 02:24:00,
2013-05-30 21:29:00,66.3,64.2,29.84,WSW,250,2.0,9.0,93,0.00,,OVC043,0.04,VWS V14.00,2013-05-31 02:29:00,
2013-05-30 21:30:00,66.7,64.6,29.86,WSW,243,1.0,13.0,93,0.00,,OVC030,0.04,VWS V14.00,2013-05-31 02:30:00,
2013-05-30 21:34:00,65.9,63.8,29.83,SW,227,2.0,9.0,93,0.00,,OVC043,0.04,VWS V14.00,2013-05-31 02:34:00,
2013-05-30 21:39:00,65.5,63.4,29.82,SW,228,0.0,9.0,93,0.00,,OVC065,0.04,VWS V14.00,2013-05-31 02:39:00,
2013-05-30 21:44:00,65.3,63.2,29.82,SW,228,0.0,9.0,93,0.00,,OVC065,0.04,VWS V14.00,2013-05-31 02:44:00,
2013-05-30 21:49:00,65.3,63.2,29.82,SW,228,0.0,9.0,93,0.00,,OVC065,0.04,VWS V14.00,2013-05-31 02:49:00,
2013-05-30 21:54:00,65.3,63.5,29.82,SW,228,0.0,0.0,94,0.00,,OVC065,0.04,VWS V14.00,2013-05-31 02:54:00,
2013-05-30 21:59:00,65.3,63.5,29.83,SW,228,0.0,1.0,94,0.00,,OVC065,0.04,VWS V14.00,2013-05-31 02:59:00,
2013-05-30 22:00:00,65.3,63.2,29.82,SW,228,0.0,9.0,93,0.00,,OVC030,0.04,VWS V14.00,2013-05-31 03:00:00,
2013-05-30 22:04:00,65.3,63.5,29.83,ESE,105,2.0,5.0,94,0.00,,-RA,0.04,VWS V14.00,2013-05-31 03:04:00,
2013-05-30 22:09:00,65.2,63.4,29.84,East,99,0.0,6.0,94,0.00,,-RA,0.04,VWS V14.00,2013-05-31 03:09:00,
2013-05-30 22:14:00,65.1,63.3,29.84,East,100,1.0,7.0,94,0.00,,-RA,0.04,VWS V14.00,2013-05-31 03:14:00,
2013-05-30 22:19:00,65.0,63.2,29.84,ESE,119,4.0,7.0,94,0.00,,SCT120,0.04,VWS V14.00,2013-05-31 03:19:00,
2013-05-30 22:24:00,65.1,63.3,29.84,SE,126,5.0,5.0,94,0.00,,SCT120,0.04,VWS V14.00,2013-05-31 03:24:00,
2013-05-30 22:29:00,65.1,63.3,29.84,ESE,119,1.0,5.0,94,0.00,,SCT120,0.04,VWS V14.00,2013-05-31 03:29:00,
2013-05-30 22:30:00,65.0,63.2,29.84,ESE,119,1.0,7.0,94,0.00,,OVC030,0.04,VWS V14.00,2013-05-31 03:30:00,
2013-05-30 22:34:00,65.1,63.3,29.84,ESE,123,0.0,5.0,94,0.00,,SCT120,0.04,VWS V14.00,2013-05-31 03:34:00,
2013-05-30 22:39:00,65.2,63.4,29.84,ESE,121,1.0,5.0,94,0.00,,BKN060,0.04,VWS V14.00,2013-05-31 03:39:00,
2013-05-30 22:44:00,65.3,63.5,29.84,SE,136,1.0,5.0,94,0.00,,BKN060,0.04,VWS V14.00,2013-05-31 03:44:00,
2013-05-30 22:49:00,65.2,63.4,29.84,South,175,0.0,5.0,94,0.00,,BKN060,0.04,VWS V14.00,2013-05-31 03:49:00,
2013-05-30 22:54:00,65.3,63.5,29.84,SSE,161,0.0,7.0,94,0.00,,BKN060,0.04,VWS V14.00,2013-05-31 03:54:00,
2013-05-30 22:59:00,65.3,63.5,29.84,South,184,1.0,7.0,94,0.00,,BKN065,0.04,VWS V14.00,2013-05-31 03:59:00,
2013-05-30 23:00:00,65.2,63.4,29.84,South,175,0.0,5.0,94,0.00,,OVC030,0.04,VWS V14.00,2013-05-31 04:00:00,
2013-05-30 23:01:00,65.3,63.5,29.84,South,184,0.0,7.0,94,0.00,,BKN065,0.04,VWS V14.00,2013-05-31 04:01:00,
2013-05-30 23:06:00,65.5,64.0,29.84,South,171,5.0,7.0,95,0.00,,BKN065,0.04,VWS V14.00,2013-05-31 04:06:00,
2013-05-30 23:11:00,65.7,64.2,29.84,SSE,161,0.0,7.0,95,0.00,,BKN065,0.04,VWS V14.00,2013-05-31 04:11:00,
2013-05-30 23:16:00,66.0,64.5,29.84,South,178,0.0,7.0,95,0.00,,BKN065,0.04,VWS V14.00,2013-05-31 04:16:00,
2013-05-30 23:21:00,66.2,64.7,29.83,ESE,118,0.0,7.0,95,0.00,,BKN120,0.04,VWS V14.00,2013-05-31 04:21:00,
2013-05-30 23:26:00,66.4,64.9,29.83,SSE,159,0.0,6.0,95,0.00,,BKN120,0.04,VWS V14.00,2013-05-31 04:26:00,
2013-05-30 23:30:00,66.2,64.7,29.83,ESE,118,1.0,7.0,95,0.00,,OVC030,0.04,VWS V14.00,2013-05-31 04:30:00,
2013-05-30 23:31:00,66.5,65.0,29.83,South,188,2.0,6.0,95,0.00,,BKN120,0.04,VWS V14.00,2013-05-31 04:31:00,
2013-05-30 23:36:00,66.6,65.1,29.84,SSW,196,1.0,6.0,95,0.00,,BKN120,0.04,VWS V14.00,2013-05-31 04:36:00,
2013-05-30 23:41:00,66.8,65.3,29.84,South,184,0.0,6.0,95,0.00,,CLR,0.04,VWS V14.00,2013-05-31 04:41:00,
2013-05-30 23:46:00,67.0,65.5,29.84,South,184,2.0,6.0,95,0.00,,CLR,0.04,VWS V14.00,2013-05-31 04:46:00,
2013-05-30 23:51:00,67.3,65.8,29.84,ESE,111,1.0,8.0,95,0.00,,CLR,0.04,VWS V14.00,2013-05-31 04:51:00,
2013-05-30 23:56:00,67.5,66.0,29.84,ESE,109,1.0,4.0,95,0.00,,CLR,0.00,VWS V14.00,2013-05-31 04:56:00,